Home   Weather   Kreuztal   Past weeks

Flag for Germany Past Weather in Kreuztal, North Rhine-Westphalia, Germany — Yesterday and Last 2 Weeks

Now
41 °F

Scattered showers. Partly sunny.


Feels Like: 35 °F
Forecast: 33 / 48 °F
Wind: 9 mph from West

Location: Hessen

Current Time: Apr 25, 2017 at 4:35:06 pm

Latest Report: Apr 25, 2017 at 3:50 pm


Visibility: N/A

Pressure: 29.74 "Hg

Humidity: 53%

Dew Point: 25 °F

Location of KreuztalLocation

Past Weather in Kreuztal — Graph

°F

Kreuztal Temperature Yesterday

Maximum temperature yesterday: 54 °F (at 3:20 pm)
Minimum temperature yesterday: 36 °F (at 7:20 am)
Average temperature yesterday: 47 °F

High & Low Weather Summary for the Past Weeks

 TemperatureHumidityPressure
High54 °F (Apr 12, 1:20 pm)100% (Apr 11, 7:50 am)30.54 "Hg (Apr 11, 7:50 am)
Low28 °F (Apr 19, 7:50 am)37% (Apr 20, 4:20 pm)29.68 "Hg (Apr 25, 7:20 am)
Average42 °F73%30.12 "Hg
* Reported Apr 10 2:20 pm — Apr 25 2:20 pm, Kreuztal, Weather by CustomWeather, © 2017

Note: Actual official high and low records may vary slightly from our data, if they occured in-between our weather recording intervals... More about our weather records

Advertising

Kreuztal Weather History for the Previous 24 Hours

Scroll right to see more
 ConditionsComfort  
Time TempWeatherWind HumidityBarometerVisibility
2:20 pm
Tue, Apr 25
41 °FPartly sunny.13 mph53%29.74 "HgN/A
1:50 pm41 °FPartly sunny.15 mph53%29.74 "HgN/A
1:20 pm39 °FBroken clouds.13 mph61%29.74 "HgN/A
12:50 pm39 °FBroken clouds.10 mph70%29.74 "HgN/A
12:20 pm39 °FBroken clouds.13 mph75%29.71 "HgN/A
11:50 am37 °FPartly sunny.9 mph75%29.71 "HgN/A
11:20 am39 °FPartly sunny.14 mph81%29.71 "HgN/A
10:50 am37 °FPartly sunny.10 mph93%29.71 "HgN/A
10:20 am37 °FLight rain. Partly sunny.10 mph93%29.71 "Hg5 mi
9:50 am37 °FLight rain. Broken clouds.9 mph100%29.71 "Hg5 mi
9:20 am36 °FLight rain. Partly sunny.10 mph100%29.68 "Hg4 mi
8:50 am36 °FLight rain. More clouds than sun.12 mph100%29.68 "Hg4 mi
8:20 am36 °FLight rain. More clouds than sun.12 mph100%29.68 "Hg4 mi
7:50 am36 °FRain. Fog.14 mph100%29.68 "Hg3 mi
7:20 am37 °FRain. Low clouds.15 mph100%29.68 "Hg4 mi
10:50 pm
Mon, Apr 24
46 °FPassing clouds.6 mph62%29.77 "HgN/A
9:50 pm46 °FClear.8 mph62%29.80 "Hg10 mi
9:20 pm46 °FClear.7 mph62%29.80 "Hg10 mi
8:50 pm48 °FPartly cloudy.6 mph58%29.80 "HgN/A
8:20 pm48 °FSunny.6 mph58%29.80 "Hg10 mi
7:50 pm50 °FSunny.6 mph54%29.80 "Hg10 mi
7:20 pm52 °FSunny.6 mph47%29.83 "Hg10 mi
6:50 pm52 °FSunny.8 mph47%29.83 "Hg10 mi
6:20 pm52 °FSunny.6 mph47%29.83 "Hg10 mi
5:50 pm52 °FPassing clouds.5 mph47%29.86 "HgN/A
5:20 pm52 °FPassing clouds.8 mph47%29.86 "HgN/A
4:50 pm52 °FSunny.7 mph47%29.89 "Hg10 mi
4:20 pm54 °FPassing clouds.9 mph44%29.89 "HgN/A
Weather by CustomWeather, © 2017

See weather overviewHow to use our weather pages